This is the latest recevied weather packets stored in our database for station/object KC7UNY-13. If no packets are shown the sender has not sent any weather packets the latest 10 day(s).
| Time | Temp. | Humidity | Pressure | Rain* | Wind** | Luminosity | Snow |
|---|---|---|---|---|---|---|---|
| 1777135337 | 26.11° C | 25% | 1010.3 hPa | 0 mm | - | 422 W/m² | - |
| 1777135034 | 26.11° C | 25% | 1010.2 hPa | 0 mm | - | 384 W/m² | - |
| 1777134731 | 25.56° C | 25% | 1010 hPa | 0 mm | - | 351 W/m² | - |
| 1777134427 | 26.11° C | 25% | 1010.2 hPa | 0 mm | - | 349 W/m² | - |
| 1777134123 | 26.11° C | 25% | 1010.3 hPa | 0 mm | - | 318 W/m² | - |
| 1777133820 | 26.11° C | 27% | 1010.1 hPa | 0 mm | - | 356 W/m² | - |
| 1777133515 | 25.56° C | 27% | 1010 hPa | 0 mm | - | 317 W/m² | - |
| 1777133210 | 25° C | 28% | 1010.1 hPa | 0 mm | - | 334 W/m² | - |
| 1777132905 | 25° C | 27% | 1010.1 hPa | 0 mm | - | 302 W/m² | - |
| 1777132602 | 25° C | 28% | 1009.9 hPa | 0 mm | - | 287 W/m² | - |
| 1777132298 | 25° C | 29% | 1009.8 hPa | 0 mm | - | 319 W/m² | - |
| 1777131994 | 24.44° C | 29% | 1010.1 hPa | 0 mm | - | 262 W/m² | - |
| 1777131693 | 24.44° C | 29% | 1010 hPa | 0 mm | - | 250 W/m² | - |
| 1777131387 | 24.44° C | 29% | 1009.9 hPa | 0 mm | - | 244 W/m² | - |
| 1777131081 | 24.44° C | 29% | 1010 hPa | 0 mm | - | 250 W/m² | - |
| 1777130777 | 23.89° C | 30% | 1010.1 hPa | 0 mm | - | 257 W/m² | - |
| 1777130472 | 23.89° C | 30% | 1010.1 hPa | 0 mm | - | 281 W/m² | - |
| 1777130168 | 23.89° C | 29% | 1009.9 hPa | 0 mm | - | 173 W/m² | - |
| 1777129865 | 23.89° C | 30% | 1010 hPa | 0 mm | - | 209 W/m² | - |
| 1777129560 | 23.33° C | 30% | 1010.3 hPa | 0 mm | - | 191 W/m² | - |
| 1777129259 | 23.33° C | 29% | 1010 hPa | 0 mm | - | 221 W/m² | - |
| 1777128955 | 22.78° C | 30% | 1010 hPa | 0 mm | - | 209 W/m² | - |
| 1777128651 | 22.78° C | 30% | 1010.1 hPa | 0 mm | - | 187 W/m² | - |
| 1777128350 | 22.78° C | 31% | 1010.1 hPa | 0 mm | - | 175 W/m² | - |
| 1777128046 | 21.67° C | 31% | 1010 hPa | 0 mm | - | 198 W/m² | - |
* Rain latest hour (hover to see other rain measurements)
** Current wind speed in m/s (hover to see current wind gust speed)